Regional Weather Roundup
Issued by NWS

Home | Current Version | Previous Version | Graphics & Text | Print | Product List | Glossary On
Versions: 1 2 3 4 5 6 7 8 9 10 11 12 13 14 15 16 17 18 19 20 21 22 23 24 25 26 27 28 29 30 31 32 33 34 35 36 37 38 39 40 41 42 43 44 45 46 47 48 49 50
384
ASUS45 KCYS 101010
RWRWY

WYOMING REGIONAL WEATHER ROUNDUP
NATIONAL WEATHER SERVICE CHEYENNE WY
300 AM MST WED FEB 10 2016

NOTE:  "FAIR" INDICATES FEW OR NO CLOUDS BELOW 12,000 FEET
WITH NO SIGNIFICANT WEATHER AND/OR OBSTRUCTIONS TO VISIBILITY.

WYZ001-101100-
YELLOWSTONE NATIONAL PARK

CITY           SKY/WX    TMP DP  RH WIND       PRES   REMARKS
LK YELLOWSTONE   N/A      6   2  83 CALM      30.41S
W YELLOWSTONE  NOT AVBL

$$
WYZ002>013-054>058-071-098>099-101100-
NORTHERN WYOMING

CITY           SKY/WX    TMP DP  RH WIND       PRES   REMARKS
JACKSON        MOCLDY     3   3 100 N10       30.43S WCI -12
CODY           FAIR      54  10  17 W17G33    30.11F
GREYBULL       FAIR      20  18  92 S3        30.16F
WORLAND        FAIR      24  20  84 S7        30.16F WCI  16
SHERIDAN       FAIR      35  19  52 N5        30.00F WCI  31
BUFFALO        FAIR      52  13  21 W12       30.04F
GILLETTE       FAIR      44  21  40 SW17      30.00F
HULETT         FAIR      41  27  56 SW13      29.99F
NEWCASTLE      FAIR      30  25  80 CALM      30.03F

$$
WYZ014>020-022>026-101>103-101100-
CENTRAL WYOMING

CITY           SKY/WX    TMP DP  RH WIND       PRES   REMARKS
BIG PINEY      FAIR      14  10  84 CALM      30.39S
PINEDALE       FAIR      12  10  92 NW7       30.39F WCI   2
DUBOIS         FAIR      28  10  47 NW20      30.29F WCI  15
LANDER         FAIR      25  17  72 CALM      30.22F
RIVERTON       FAIR      21  16  81 NE5       30.23F WCI  15
CASPER         FAIR      36  21  54 SW25G32   30.18S WCI  24
DOUGLAS        FAIR      34  23  64 N8          N/A  WCI  27

$$
WYZ021-027>030-104>119-101100-
SOUTHERN WYOMING

CITY           SKY/WX    TMP DP  RH WIND       PRES   REMARKS
EVANSTON       FAIR      27  18  69 S5        30.41S WCI  22
FORT BRIDGER   SUNNY     34   9  35 W8        30.41S WCI  27
ROCK SPRINGS   FAIR      30  18  60 SW9       30.37F WCI  22
DIXON          FAIR       7   3  83 NE3       30.46R
RAWLINS        FAIR      34  17  50 SE9G18    30.33F WCI  27
SARATOGA       FAIR      21  12  68 S10       30.36S WCI  10
LARAMIE        FAIR      33  14  45 W9        30.27S WCI  25
CHEYENNE       FAIR      41  15  35 W16G26    30.16S
TORRINGTON     FAIR      36  23  59 NW8       30.08F WCI  30
PINE BLUFFS    FAIR      32  21  64 W7        30.14S WCI  26

$$




USA.gov is the U.S. government's official web portal to all federal, state and local government web resources and services.